Location: Boston
(42.3580°N, 71.0600°W)
Time: 14:00:20
(UTC-05:00)

Vanguard 3 - All Passes

Search period start: 14 December 2017 00:00
Search period end: 24 December 2017 00:00
Orbit: 509 x 3263 km, 33.3° (Epoch: 13 December)

Date Brightness Start Highest point End Pass type
(mag) Time Alt. Az. Time Alt. Az. Time Alt. Az.
14 Dec - 10:31:15 10° S 10:32:32 11° SSE 10:33:43 10° SSE daylight
14 Dec - 12:40:30 10° SW 12:43:36 20° S 12:46:24 10° SE daylight
14 Dec - 14:51:37 10° SW 14:54:23 20° S 14:57:30 10° SE daylight
14 Dec - 17:05:02 10° SSW 17:05:31 10° SSW 17:06:00 10° SSW visible
15 Dec - 11:27:03 10° SSW 11:30:26 18° S 11:33:13 10° SE daylight
15 Dec - 13:38:17 10° SW 13:41:18 22° S 13:44:15 10° SE daylight
15 Dec - 15:50:12 10° SW 15:52:09 13° SSW 15:54:20 10° SSE daylight
16 Dec - 10:13:32 10° SSW 10:17:04 15° SSE 10:19:54 10° SE daylight
16 Dec - 12:24:38 10° SW 12:28:13 23° S 12:31:14 10° SE daylight
16 Dec - 14:36:28 10° SW 14:38:59 17° SSW 14:41:36 10° SSE daylight
17 Dec - 09:00:26 10° S 09:03:27 13° SSE 09:05:59 10° SE daylight
17 Dec - 11:10:39 10° SW 11:15:01 22° S 11:18:19 10° ESE daylight
17 Dec - 13:22:44 10° WSW 13:25:54 22° S 13:28:49 10° SE daylight
18 Dec - 09:56:28 10° SW 10:01:36 21° SSE 10:05:20 10° ESE daylight
18 Dec - 12:08:42 10° WSW 12:12:49 26° S 12:16:04 10° SE daylight
18 Dec - 14:21:20 10° SW 14:23:32 15° SSW 14:25:43 10° SSE daylight
19 Dec - 08:42:23 10° SSW 08:47:55 18° SSE 08:52:00 10° ESE daylight
19 Dec - 10:54:15 10° SW 10:59:35 27° S 11:03:21 10° ESE daylight
19 Dec - 13:07:06 10° WSW 13:10:29 21° SSW 13:13:24 10° SE daylight
20 Dec - 07:28:56 10° S 07:33:54 14° SSE 07:37:51 10° SE daylight
20 Dec - 09:39:32 10° SW 09:46:07 26° S 09:50:32 10° ESE daylight
20 Dec - 11:52:40 10° WSW 11:57:24 28° S 12:00:54 10° SE daylight
20 Dec - 14:06:11 10° SW 14:08:02 13° SSW 14:09:48 10° S daylight
21 Dec - 06:19:11 10° SSE 06:19:34 10° SSE 06:19:56 10° SSE visible
21 Dec - 08:24:46 10° SSW 08:32:19 23° SSE 08:37:25 10° ESE daylight
21 Dec - 10:37:49 10° WSW 10:44:08 32° S 10:48:19 10° ESE daylight
21 Dec - 12:51:23 10° WSW 12:55:02 21° SSW 12:58:01 10° SE daylight
22 Dec - 07:10:23 10° SSW 07:18:10 20° SSE 07:23:46 10° ESE daylight
22 Dec - 09:22:37 10° SW 09:30:34 32° S 09:35:35 10° ESE daylight
22 Dec - 11:36:33 10° WSW 11:41:57 30° S 11:45:44 10° SE daylight
22 Dec - 13:51:08 10° SW 13:52:29 11° SSW 13:53:46 10° S daylight
23 Dec - 05:57:09 10° S 06:03:41 15° SSE 06:08:54 10° ESE visible
23 Dec - 08:07:18 10° SW 08:16:39 29° SSE 08:22:37 10° ESE daylight
23 Dec - 10:21:17 10° WSW 10:28:38 36° S 10:33:15 10° ESE daylight
23 Dec - 12:35:33 10° WSW 12:39:32 21° SSW 12:42:39 10° SSE daylight
